Weather History for Ardmore, OK

Change the Weather History Date:

Saturday, October 12, 2013

  Actual Average Record
Temperature  
Mean Temperature 76 °F -  
Max Temperature 86 °F 74 °F 89 °F (1999)
Min Temperature 66 °F 53 °F 42 °F (2006)
Cooling Degree Days 11    
Growing Degree Days 26 (Base 50)    
Moisture  
Dew Point 68 °F    
Average Humidity 90    
Maximum Humidity 100    
Minimum Humidity 55    
Precipitation  
Precipitation 0.44 in - - ()
Sea Level Pressure  
Sea Level Pressure 29.92 in    
Wind  
Wind Speed 3 mph (East)    
Max Wind Speed 13 mph    
Max Gust Speed 36 mph    
Visibility 9 miles    
Events Rain , Thunderstorm    
Averages and records for this station are not official NWS values.
T = Trace of Precipitation, MM = Missing Value Source: NWS Daily Summary

Daily Weather History Graph

Daily Weather History Graph

Search for Another Location

Airport:

Trip Planner

Search our weather history database for the weather conditions in past years. The results will help you decide how hot, cold, wet, or windy it might be!

Date:

Astronomy

Oct. 12, 2013 Rise Set
Actual Time 7:31 AM CDT 6:57 PM CDT
Civil Twilight 7:05 AM CDT 7:22 PM CDT
Nautical Twilight 6:36 AM CDT 7:51 PM CDT
Astronomical Twilight 6:07 AM CDT 8:20 PM CDT
Moon 2:52 PM CDT (10/12) 12:52 AM CDT (10/12)
Length of Visible Light 12h 16m
Length of Day
11h 25m
First Quarter, 59% of the Moon is Illuminated
Oct 12
First Quarter
Oct 18
Full
Oct 26
Last Quarter
Nov 3
New
Nov 9
First Quarter

Hourly Weather History & Observations

Time (CDT) Temp. Heat Index Dew Point Humidity Pressure Visibility Wind Dir Wind Speed Gust Speed Precip Events Conditions
12:15 AM 72.3 °F - 69.8 °F 92% 29.87 in 10.0 mi East 3.5 mph - N/A   Clear
12:35 AM 72.5 °F - 69.8 °F 91% 29.87 in 10.0 mi East 3.5 mph - N/A   Clear
12:55 AM 72.5 °F - 69.8 °F 91% 29.87 in 10.0 mi ESE 3.5 mph - N/A   Clear
1:15 AM 73.6 °F - 70.2 °F 89% 29.86 in 10.0 mi SE 3.5 mph - N/A   Clear
1:35 AM 73.6 °F - 68.9 °F 85% 29.87 in 1.5 mi ESE 12.7 mph 35.7 mph 0.34 in Rain , Thunderstorm Heavy Thunderstorms and Rain
1:55 AM 74.5 °F - 71.2 °F 90% 29.89 in 7.0 mi SW 8.1 mph 19.6 mph 0.40 in Rain Heavy Rain
2:15 AM 72.7 °F - 70.7 °F 93% 29.89 in 10.0 mi SSE 9.2 mph - 0.04 in Rain , Thunderstorm Thunderstorms and Rain
2:35 AM 71.4 °F - 65.8 °F 82% 29.87 in 10.0 mi Calm Calm - 0.04 in Thunderstorm Scattered Clouds
2:55 AM 68.2 °F - 66.9 °F 96% 29.88 in 10.0 mi NE 3.5 mph - 0.04 in   Mostly Cloudy
3:15 AM 67.8 °F - 66.6 °F 96% 29.87 in 10.0 mi Calm Calm - N/A   Scattered Clouds
3:35 AM 66.6 °F - 66.2 °F 99% 29.87 in 10.0 mi ESE 3.5 mph - N/A   Clear
3:55 AM 66.2 °F - 65.8 °F 99% 29.88 in 7.0 mi East 3.5 mph - N/A   Clear
4:15 AM 66.6 °F - 66.2 °F 99% 29.88 in 10.0 mi ENE 3.5 mph - N/A   Scattered Clouds
4:35 AM 66.4 °F - 66.0 °F 99% 29.89 in 10.0 mi Calm Calm - N/A   Mostly Cloudy
4:55 AM 66.4 °F - 66.4 °F 100% 29.89 in 7.0 mi Calm Calm - N/A   Mostly Cloudy
5:15 AM 68.2 °F - 68.0 °F 99% 29.90 in 10.0 mi Calm Calm - N/A   Overcast
5:35 AM 68.9 °F - 68.2 °F 98% 29.90 in 7.0 mi Calm Calm - N/A   Overcast
5:55 AM 69.8 °F - 69.4 °F 99% 29.92 in 10.0 mi Calm Calm - N/A   Overcast
6:15 AM 69.8 °F - 69.3 °F 98% 29.92 in 5.0 mi Calm Calm - N/A   Overcast
6:35 AM 69.8 °F - 69.6 °F 99% 29.93 in 7.0 mi Calm Calm - N/A   Overcast
6:55 AM 71.6 °F - 71.6 °F 100% 29.94 in 4.0 mi Calm Calm - N/A   Overcast
7:55 AM 71.6 °F - 71.6 °F 100% 29.95 in 4.0 mi Calm Calm - N/A   Overcast
11:55 AM 80.6 °F 83.9 °F 69.8 °F 70% 30.01 in 10.0 mi Calm Calm - N/A   Scattered Clouds
1:55 PM 84.2 °F 88.4 °F 69.8 °F 62% 29.98 in 10.0 mi Calm Calm - N/A   Clear
2:55 PM 86.0 °F 90.4 °F 69.8 °F 58% 29.96 in 10.0 mi North 10.4 mph - N/A   Clear
3:55 PM 86.0 °F 89.4 °F 68.0 °F 55% 29.96 in 10.0 mi North 9.2 mph 16.1 mph N/A   Scattered Clouds
11:35 PM 66.7 °F - 64.4 °F 92% 30.10 in 10.0 mi ENE 5.8 mph - N/A   Clear
11:55 PM 66.2 °F - 63.9 °F 92% 30.10 in 10.0 mi Calm Calm - N/A   Clear